{"data":{"norad_id":68867,"epoch":"2026-09-19T07:22:39.114624Z","epoch_age_seconds":118508,"freshness":"FRESH","line1":"1 68867U 26095D   26262.30739716  .00000146  00000+0  48188-4 0  9994","line2":"2 68867  51.9036 189.4929 0001422  56.5156 303.5943 14.79928199 21627","mean_motion":14.79928199,"eccentricity":0.0001422,"inclination_deg":51.9036,"raan_deg":189.4929,"arg_perigee_deg":56.5156,"mean_anomaly_deg":303.5943,"bstar":4.8188e-5,"rev_number":2162,"period_min":97.302017825799,"perigee_km":628.55429158028,"apogee_km":630.54727798627,"semimajor_km":7007.6877847833,"source":"CELESTRAK","updated_at":"2026-09-20T09:00:24.507709Z"}}